User: anonymous   Login
Location: Unspecified
(0.0000°N, 0.0000°E)
Time: 12:26:01
(UTC+00:00)
Language:

Aussat K3 - Orbit

View from above orbital plane
View from above orbital plane
View from above satellite
View from above satellite

Ground track
Ground track

The orbit data is extracted from the following two-line orbital elements,

1 18350U 87078A   15057.31542723  .00000017  00000-0  00000+0 0  9999
2 18350 013.9866 027.0759 0005214 265.7107 208.7490 00.98904788 99687
Epoch (UTC): 26 February 2015 07:34:12
Eccentricity: 0.0005214
inclination: 13.9866°
perigee height: 36151 km
apogee height: 36196 km
right ascension of ascending node: 27.0759°
argument of perigee: 265.7107°
revolutions per day: 0.98904788
mean anomaly at epoch: 208.7490°
orbit number at epoch: 9968

The dashed part of the orbit path shows where the satellite is in the earth's shadow,  

DLR